Location: Eferding
(48.3167°N, 14.0167°E)
Time: 01:29:24
(UTC+00:00)

ALOS - Pass Details

Date: 12 November 2019
Orbit: 683 x 686 km, 97.8° (Epoch: 05 December)

Event Time Altitude Azimuth Distance (km) Brightness Sun altitude
Rises 16:13:27 0° 188° (S) 3,036 6.0 -7.6°
Reaches altitude 10° 16:15:51 10° 197° (SSW) 2,125 5.3 -8.0°
Maximum altitude 16:20:07 35° 264° (W) 1,099 4.2 -8.7°
Drops below altitude 10° 16:24:25 10° 330° (NNW) 2,140 5.0 -9.3°
Sets 16:26:50 0° 340° (NNW) 3,060 5.7 -9.7°
